sat.trackr.live / text

‹ back to catalog

TIANQI-33

NORAD 62365 · 2024-245A

PAYLOAD ACTIVE UNKNOWN

§ Identity

Operator
Country
PRC
Launch date
2024-12-19
Launch site
YSLA
Launch vehicle
Mass (kg)
RCS (m²)

External: N2YO · Heavens-Above · Gunter

§ Orbital elements

Epoch: 2026-05-25T04:09:42.184224Z

Period
102.92 min
Inclination
44.9841°
Eccentricity
0.0008496
Mean motion
13.99198377 rev/d
Perigee alt
890.4 km
Apogee alt
902.8 km
Semi-major
7,274.7 km
B*
1.1431e-4
RAAN
64.4306°
Arg perigee
273.0983°
Mean anomaly
86.8877°
Rev number
7,313

§ Raw data

TIANQI-331 62365U 24245A   26145.17340491  .00000038  00000+0  11431-3 0  99992 62365  44.9841  64.4306 0008496 273.0983  86.8877 13.99198377 73131

JSON: /api/v1/satellites/62365 · /tle

For live sub-satellite position, see the globe view (requires WebGL).

§ Visibility from observer

Set your observer location to see the next 7 days of passes ≥ 10°. The values pass through the URL so the page stays shareable.

No JS? Fill the form by hand. The geolocation button needs JavaScript.